Location: Newark
(51.0000°N, 11.4100°E)
Time: 06:32:48
(UTC+00:00)

Explorer 7 - Visible Passes

Search period start: 14 November 2019 00:00
Search period end: 24 November 2019 00:00
Orbit: 485 x 680 km, 50.3° (Epoch: 13 November)

Date Brightness Start Highest point End Pass type
(mag) Time Alt. Az. Time Alt. Az. Time Alt. Az.
14 Nov 7.2 03:48:37 61° ESE 03:48:37 61° ESE 03:51:58 10° E visible
14 Nov 6.9 05:24:57 13° W 05:28:25 62° SSW 05:32:15 10° ESE visible
15 Nov 7.0 03:53:27 67° ESE 03:53:27 67° ESE 03:56:57 10° E visible
15 Nov 7.2 05:29:47 12° W 05:33:19 50° SSW 05:37:05 10° SE visible
16 Nov 6.9 03:58:18 70° SE 03:58:18 70° SE 04:01:54 10° E visible
16 Nov 7.6 05:34:37 11° W 05:38:11 38° SSW 05:41:47 10° SE visible
17 Nov 6.9 04:03:09 67° SSE 04:03:09 67° SSE 04:06:50 10° ESE visible
17 Nov 8.0 05:39:29 10° W 05:42:59 28° SSW 05:46:19 10° SSE visible
18 Nov 7.0 04:08:02 58° S 04:08:02 58° S 04:11:42 10° ESE visible
18 Nov 8.5 05:44:44 10° W 05:47:44 20° SW 05:50:37 10° S visible
19 Nov 7.3 04:12:57 46° S 04:12:57 46° S 04:16:30 10° SE visible
19 Nov 8.9 05:50:19 10° WSW 05:52:25 14° SW 05:54:28 10° S visible
20 Nov 7.7 04:17:55 34° SSW 04:17:55 34° SSW 04:21:09 10° SE visible
21 Nov 8.2 04:22:57 25° SSW 04:22:57 25° SSW 04:25:38 10° SSE visible
22 Nov 8.7 04:28:02 17° SSW 04:28:02 17° SSW 04:29:50 10° S visible
23 Nov 9.2 04:33:12 11° SSW 04:33:12 11° SSW 04:33:29 10° SSW visible
